Tracking 20382 objects as of 24-Feb-2020
HD Live streaming from Space Station
objects crossing your sky now
Track the group of recently launched Starlink satellites

RADUGA 7

Track RADUGA 7 now!
RADUGA 7 is classified as:


NORAD ID: 12003
Int'l Code: 1980-081A
Perigee: 35,786.9 km
Apogee: 35,860.5 km
Inclination: 11.2 °
Period: 1,437.6 minutes
Semi major axis: 42194 km
RCS: 7.9432 m2 (large)
Launch date: October 5, 1980
Source: Commonwealth of Independent States (former USSR) (CIS)
Launch site: TYURATAM MISSILE AND SPACE COMPLEX (TTMTR)
aabbcc
Your satellite tracking list
Your tracking list is empty




NASA's NSSDC Master Catalog

Two Line Element Set (TLE):
1 12003U 80081A   20054.59213404 +.00000012 +00000-0 +00000-0 0  9995
2 12003 011.2483 314.0132 0008717 269.3274 021.4000 01.00165128100188
Source of the keplerian elements: AFSPC